When you browse on this site, cookies collect data to enhance your experience and personalize the content and advertising you see.
Visit our Privacy Policy to learn more. By continuing to use the site, you agree to this use of cookies and data.
  • In Österreich
  • Länderverzeichnis
  • Für 7 Tage
  • Wassertemperatur
  • Wetterkarte
  • News
  • Widgets
  • user-avatar
    Anmelden

    Stündliche Wetter Nizhnee Olgovo

    Heute, 3 Juni, Mittwoch

    Zeit Temperatur Niederschläge Wind Luftdruck Luftfeuchtigkeit
    00:00 +9°C° 0.1 mm 3 m/S 741 mmHg 87%
    01:00 +8°C° 0.1 mm 3 m/S 741 mmHg 89%
    02:00 +8°C° 0.1 mm 3 m/S 741 mmHg 92%
    03:00 +8°C° 0 mm 3 m/S 741 mmHg 93%
    04:00 +8°C° 0 mm 3 m/S 741 mmHg 94%
    05:00 +9°C° 0 mm 2 m/S 741 mmHg 94%
    06:00 +9°C° 0 mm 2 m/S 741 mmHg 92%
    07:00 +10°C° 0 mm 2 m/S 741 mmHg 89%
    08:00 +12°C° 0 mm 2 m/S 741 mmHg 87%
    09:00 +12°C° 0 mm 2 m/S 741 mmHg 85%
    10:00 +12°C° 0 mm 3 m/S 741 mmHg 83%
    11:00 +12°C° 0 mm 3 m/S 741 mmHg 81%
    12:00 +13°C° 0 mm 3 m/S 740 mmHg 81%
    13:00 +13°C° 0 mm 3 m/S 740 mmHg 81%
    14:00 +13°C° 0 mm 3 m/S 740 mmHg 82%
    15:00 +13°C° 0 mm 3 m/S 740 mmHg 79%
    16:00 +14°C° 0 mm 3 m/S 739 mmHg 77%
    17:00 +14°C° 0 mm 3 m/S 739 mmHg 75%
    18:00 +14°C° 0 mm 2 m/S 739 mmHg 82%
    19:00 +13°C° 0 mm 2 m/S 739 mmHg 88%
    20:00 +11°C° 0 mm 1 m/S 739 mmHg 95%
    21:00 +10°C° 0 mm 1 m/S 738 mmHg 96%
    22:00 +9°C° 0 mm 1 m/S 738 mmHg 97%
    23:00 +9°C° 0 mm 1 m/S 738 mmHg 98%

    Morgen, 4 Juni, Donnerstag

    Zeit Temperatur Niederschläge Wind Luftdruck Luftfeuchtigkeit
    00:00 +8°C° 0 mm 1 m/S 737 mmHg 98%
    01:00 +7°C° 0 mm 0 m/S 737 mmHg 98%
    02:00 +7°C° 0 mm 0 m/S 737 mmHg 98%
    03:00 +7°C° 0 mm 0 m/S 737 mmHg 97%
    04:00 +8°C° 0 mm 0 m/S 736 mmHg 97%
    05:00 +8°C° 0 mm 0 m/S 736 mmHg 96%
    06:00 +11°C° 0 mm 1 m/S 736 mmHg 89%
    07:00 +13°C° 0 mm 1 m/S 736 mmHg 81%
    08:00 +16°C° 0 mm 1 m/S 737 mmHg 74%
    09:00 +17°C° 0 mm 2 m/S 736 mmHg 68%
    10:00 +18°C° 0 mm 2 m/S 736 mmHg 62%
    11:00 +19°C° 0 mm 3 m/S 736 mmHg 56%
    12:00 +18°C° 0.2 mm 3 m/S 736 mmHg 58%
    13:00 +18°C° 0.2 mm 4 m/S 736 mmHg 60%
    14:00 +18°C° 0.2 mm 4 m/S 736 mmHg 63%
    15:00 +17°C° 0.2 mm 4 m/S 736 mmHg 65%
    16:00 +17°C° 0.2 mm 3 m/S 736 mmHg 67%
    17:00 +17°C° 0.2 mm 3 m/S 736 mmHg 70%
    18:00 +14°C° 0.3 mm 3 m/S 736 mmHg 77%
    19:00 +14°C° 0.3 mm 2 m/S 736 mmHg 85%
    20:00 +13°C° 0.3 mm 2 m/S 736 mmHg 93%
    21:00 +12°C° 0 mm 2 m/S 736 mmHg 94%
    22:00 +10°C° 0 mm 2 m/S 736 mmHg 96%
    23:00 +9°C° 0 mm 2 m/S 736 mmHg 97%

    übermorgen, 5 Juni, Freitag

    Zeit Temperatur Niederschläge Wind Luftdruck Luftfeuchtigkeit
    00:00 +9°C° 0 mm 2 m/S 736 mmHg 97%
    01:00 +9°C° 0 mm 2 m/S 736 mmHg 97%
    02:00 +8°C° 0 mm 2 m/S 736 mmHg 97%
    03:00 +8°C° 0 mm 2 m/S 736 mmHg 97%
    04:00 +9°C° 0 mm 2 m/S 736 mmHg 97%
    05:00 +9°C° 0 mm 2 m/S 736 mmHg 97%
    06:00 +10°C° 0 mm 3 m/S 736 mmHg 92%
    07:00 +12°C° 0 mm 3 m/S 736 mmHg 87%
    08:00 +13°C° 0 mm 3 m/S 736 mmHg 82%
    09:00 +16°C° 0.4 mm 3 m/S 736 mmHg 78%
    10:00 +17°C° 0.4 mm 4 m/S 736 mmHg 73%
    11:00 +18°C° 0.4 mm 4 m/S 736 mmHg 68%
    12:00 +19°C° 0.2 mm 4 m/S 736 mmHg 63%
    13:00 +19°C° 0.2 mm 3 m/S 736 mmHg 58%
    14:00 +20°C° 0.2 mm 3 m/S 736 mmHg 53%
    15:00 +20°C° 0.1 mm 3 m/S 736 mmHg 55%
    16:00 +20°C° 0.1 mm 3 m/S 736 mmHg 58%
    17:00 +20°C° 0.1 mm 3 m/S 736 mmHg 60%
    18:00 +19°C° 0 mm 3 m/S 737 mmHg 69%
    19:00 +17°C° 0 mm 3 m/S 737 mmHg 79%
    20:00 +14°C° 0 mm 3 m/S 737 mmHg 89%
    21:00 +14°C° 0 mm 3 m/S 737 mmHg 91%
    22:00 +14°C° 0 mm 3 m/S 737 mmHg 94%
    23:00 +13°C° 0 mm 3 m/S 737 mmHg 97%

    6 Juni, Samstag

    Zeit Temperatur Niederschläge Wind Luftdruck Luftfeuchtigkeit
    00:00 +13°C° 0.1 mm 3 m/S 737 mmHg 97%
    01:00 +14°C° 0.1 mm 3 m/S 737 mmHg 97%
    02:00 +14°C° 0.1 mm 4 m/S 737 mmHg 97%
    03:00 +14°C° 0.1 mm 3 m/S 737 mmHg 97%
    04:00 +16°C° 0.1 mm 3 m/S 737 mmHg 96%
    05:00 +16°C° 0.1 mm 3 m/S 737 mmHg 96%
    06:00 +17°C° 0 mm 4 m/S 737 mmHg 92%
    07:00 +18°C° 0 mm 4 m/S 737 mmHg 88%
    08:00 +19°C° 0 mm 5 m/S 737 mmHg 85%
    09:00 +20°C° 0.1 mm 5 m/S 737 mmHg 83%
    10:00 +20°C° 0.1 mm 5 m/S 738 mmHg 81%
    11:00 +20°C° 0.1 mm 6 m/S 738 mmHg 79%
    12:00 +20°C° 0.4 mm 5 m/S 738 mmHg 79%
    13:00 +20°C° 0.4 mm 5 m/S 739 mmHg 79%
    14:00 +21°C° 0.4 mm 5 m/S 740 mmHg 79%
    15:00 +21°C° 0.1 mm 4 m/S 740 mmHg 72%
    16:00 +22°C° 0.1 mm 4 m/S 740 mmHg 65%
    17:00 +22°C° 0.1 mm 4 m/S 741 mmHg 58%
    18:00 +20°C° 0 mm 3 m/S 741 mmHg 66%
    19:00 +19°C° 0 mm 2 m/S 742 mmHg 74%
    20:00 +17°C° 0 mm 2 m/S 742 mmHg 82%
    21:00 +16°C° 0 mm 2 m/S 743 mmHg 86%
    22:00 +15°C° 0 mm 2 m/S 744 mmHg 90%
    23:00 +14°C° 0 mm 2 m/S 744 mmHg 94%

    7 Juni, Sonntag

    Zeit Temperatur Niederschläge Wind Luftdruck Luftfeuchtigkeit
    00:00 +14°C° 0 mm 2 m/S 745 mmHg 95%
    01:00 +13°C° 0 mm 1 m/S 745 mmHg 95%
    02:00 +13°C° 0 mm 1 m/S 746 mmHg 96%
    03:00 +13°C° 0 mm 1 m/S 746 mmHg 95%
    04:00 +13°C° 0 mm 2 m/S 746 mmHg 94%
    05:00 +14°C° 0 mm 2 m/S 747 mmHg 93%
    06:00 +16°C° 0 mm 2 m/S 747 mmHg 85%
    07:00 +18°C° 0 mm 2 m/S 747 mmHg 77%
    08:00 +20°C° 0 mm 2 m/S 748 mmHg 69%
    09:00 +21°C° 0 mm 2 m/S 748 mmHg 64%
    10:00 +24°C° 0 mm 2 m/S 748 mmHg 58%
    11:00 +25°C° 0 mm 2 m/S 748 mmHg 53%
    12:00 +25°C° 0 mm 3 m/S 748 mmHg 51%
    13:00 +26°C° 0 mm 3 m/S 748 mmHg 50%
    14:00 +26°C° 0 mm 3 m/S 748 mmHg 48%
    15:00 +26°C° 0 mm 3 m/S 747 mmHg 52%
    16:00 +26°C° 0 mm 3 m/S 747 mmHg 57%
    17:00 +26°C° 0 mm 3 m/S 747 mmHg 61%
    18:00 +24°C° 0.2 mm 3 m/S 747 mmHg 71%
    19:00 +21°C° 0.2 mm 3 m/S 747 mmHg 81%
    20:00 +20°C° 0.2 mm 3 m/S 747 mmHg 90%
    21:00 +19°C° 0.1 mm 3 m/S 747 mmHg 92%
    22:00 +19°C° 0.1 mm 3 m/S 747 mmHg 94%
    23:00 +19°C° 0.1 mm 3 m/S 747 mmHg 96%

    8 Juni, Montag

    Zeit Temperatur Niederschläge Wind Luftdruck Luftfeuchtigkeit
    00:00 +18°C° 0 mm 3 m/S 747 mmHg 96%
    01:00 +18°C° 0 mm 3 m/S 747 mmHg 96%
    02:00 +17°C° 0 mm 3 m/S 747 mmHg 96%
    03:00 +17°C° 0 mm 3 m/S 747 mmHg 96%
    04:00 +17°C° 0 mm 3 m/S 747 mmHg 96%
    05:00 +17°C° 0 mm 3 m/S 747 mmHg 96%
    06:00 +19°C° 0 mm 3 m/S 747 mmHg 90%
    07:00 +21°C° 0 mm 3 m/S 747 mmHg 84%
    08:00 +22°C° 0 mm 3 m/S 748 mmHg 78%
    09:00 +25°C° 0 mm 3 m/S 748 mmHg 70%
    10:00 +26°C° 0 mm 3 m/S 748 mmHg 62%
    11:00 +28°C° 0 mm 4 m/S 748 mmHg 55%
    12:00 +28°C° 0 mm 4 m/S 748 mmHg 53%
    13:00 +28°C° 0 mm 4 m/S 748 mmHg 52%
    14:00 +29°C° 0 mm 4 m/S 748 mmHg 51%
    15:00 +28°C° 0 mm 3 m/S 748 mmHg 55%
    16:00 +28°C° 0 mm 3 m/S 748 mmHg 59%
    17:00 +27°C° 0 mm 3 m/S 748 mmHg 63%
    18:00 +26°C° 0 mm 3 m/S 748 mmHg 71%
    19:00 +24°C° 0 mm 2 m/S 748 mmHg 79%
    20:00 +21°C° 0 mm 2 m/S 748 mmHg 86%
    21:00 +20°C° 0 mm 2 m/S 748 mmHg 89%
    22:00 +19°C° 0 mm 2 m/S 748 mmHg 91%
    23:00 +19°C° 0 mm 2 m/S 748 mmHg 93%
    Mehr zeigen